Regional Weather Roundup
Issued by NWS

Home | Current Version | Previous Version | Text Only | Print | Product List | Glossary On
Versions: 1 2 3 4 5 6 7 8 9 10 11 12 13 14 15 16 17 18 19 20 21 22 23 24 25 26 27 28 29 30 31 32 33 34 35 36 37 38 39 40 41 42 43 44 45 46 47 48 49 50
000
ASUS44 KFWD 241915
RWRTX
NORTH TEXAS HOURLY WEATHER ROUNDUP
NATIONAL WEATHER SERVICE FORT WORTH TX
100 PM CST TUE JAN 24 2017

NOTE: "FAIR" INDICATES FEW OR NO CLOUDS BELOW 12,000 FEET WITH NO
SIGNIFICANT WEATHER AND/OR OBSTRUCTIONS TO VISIBILITY.

TXZ118-119-242000-
DALLAS/FORT WORTH METROPLEX

CITY           SKY/WX    TMP DP  RH WIND       PRES   REMARKS
DFW AIRPORT    PTSUNNY   78  45  30 S13       29.61F
DALLAS LOVE    PTSUNNY   78  44  29 SW10G17   29.62F
FTW MEACHAM    MOSUNNY   80  41  24 S17G24    29.60F
DAL-EXECUTIVE  SUNNY     76  48  37 S14G22    29.61F
FTW-ALLIANCE   PTSUNNY   75  40  28 S12       29.61F
FTW-NAS-JRB    PTSUNNY   81  44  27 S12       29.61F
FTW-SPINKS     SUNNY     77  45  31 S15G31    29.63F
ARLINGTON      MOSUNNY   76  46  34 S15G21    29.61F
GRAND PRAIRIE  SUNNY     70  43  37 S12G25    29.64F
ADDISON        SUNNY     75  46  35 S15G26    29.63F
MESQUITE       SUNNY     75  48  38 S17G26    29.64F
LANCASTER      MOSUNNY   73  53  50 S16G25    29.64F
$$

TXZ091>094-102>105-117-120-121-131>134-242000-
NORTH CENTRAL TEXAS

CITY           SKY/WX    TMP DP  RH WIND       PRES   REMARKS
SHRMAN/DENISON NOT AVBL
GAINESVILLE    CLOUDY    73  39  29 S9        29.63F
BOWIE          SUNNY     78  35  21 SW12      29.61F
BRIDGEPORT     MOSUNNY   79  44  28 S8        29.62F
DECATUR        MOSUNNY   76  37  24 S7        29.62F
DENTON         MOSUNNY   73  42  32 S17       29.61F
MCKINNEY       MOSUNNY   72  48  42 S18       29.62F
BONHAM         MOSUNNY   73  48  40 SW20G26   29.63F
GREENVILLE     SUNNY     75  48  38 S21G28    29.64F
ROCKWALL       SUNNY     76  52  44 SW17G32   29.64F
TERRELL        SUNNY     76  51  41 S18G29    29.64F
WAXAHACHIE     SUNNY     75  52  44 S20G25    29.64F
CLEBURNE       CLOUDY    75  46  35 SE14      29.62F
GRANBURY       MOSUNNY   83  44  24 S12G21    29.60F
$$

TXZ083>090-098>101-113>116-127>130-139>142-154-155-242000-
WESTERN NORTH TEXAS

CITY           SKY/WX    TMP DP  RH WIND       PRES   REMARKS
WICHITA FALLS  PTSUNNY   74  36  25 SW14      29.57F
WF-KICKAPOO    SUNNY     73  36  26 SW8G23    29.59F
VERNON         SUNNY     76  27  16 W25G33    29.55F
ABILENE        SUNNY     77  36  22 SW12      29.64F
ABILENE-DYESS  SUNNY     76  38  25 NW13      29.62F
GRAHAM         SUNNY     79  39  24 W14       29.59F
BRECKENRIDGE   SUNNY     80  35  19 SW12G20   29.61F HAZE
CISCO          PTSUNNY   81  37  21 W13       29.63F
RANGER         PTSUNNY   81  37  21 SW13G20   29.62F
MINERAL WELLS  MOSUNNY   81  36  19 W12       29.59F
STEPHENVILLE   MOSUNNY   83  39  21 S13G18    29.63F
COMANCHE       MOSUNNY   83  42  23 SW17G28   29.61F
BROWNWOOD      MOSUNNY   84  36  17 S14G26    29.61F
COLEMAN        MOSUNNY   84  34  16 SW16G26   29.62F
$$

TXZ143>147-156>162-174-175-242000-
CENTRAL TEXAS

CITY           SKY/WX    TMP DP  RH WIND       PRES   REMARKS
WACO           SUNNY     75  55  49 S18       29.66F
WACO-MCGREGOR  SUNNY     75  57  53 S21       29.66F
HILLSBORO      SUNNY     74  55  52 S17G24    29.64F
CORSICANA      SUNNY     78  55  44 S23G31    29.67F
MEXIA          SUNNY     75  54  48 S24G38    29.67F
HEARNE         SUNNY     77  57  49 SE17G25   29.72F
CAMERON        SUNNY     78  54  42 S21G28    29.70F
TEMPLE         SUNNY     77  56  48 S29       29.65F
KILLEEN        SUNNY     80  47  30 S22G31    29.64F
KILLEEN-SKYLRK SUNNY     81  48  31 S25G38    29.65
FORT HOOD      SUNNY     81  47  30 S21G33    29.62F
GATESVILLE     SUNNY     81  48  32 S21G26    29.65F
HAMILTON       SUNNY     85  43  22 SW22G29   29.64F
LAMPASAS       SUNNY     81  47  31 S10G21    29.65F
$$

TXZ095>097-106>112-122>126-135>138-148>153-164>167-242000-
EAST TEXAS

CITY           SKY/WX    TMP DP  RH WIND       PRES   REMARKS
PARIS          SUNNY     75  48  38 S15G23    29.66F
SULPHUR SPRNGS SUNNY     76  48  37 S23G29    29.66F
MOUNT PLEASANT SUNNY     75  49  40 S21       29.69F
GILMER         SUNNY     73  52  47 S13G24    29.68F THUNDER
MINEOLA        SUNNY     75  52  43 S15G24    29.66F
TYLER          SUNNY     76  52  43 S23G32    29.68F
LONGVIEW       SUNNY     76  50  40 S23G32    29.70F
MARSHALL       SUNNY     73  46  39 S16G25    29.75F
ATHENS         SUNNY     75  52  43 S13G32    29.66F
PALESTINE      SUNNY     75  59  58 S17G24    29.72F
JACKSONVILLE   SUNNY     73  56  54 S18G28    29.74F
HENDERSON      SUNNY     74  53  46 S13G21    29.73F
CENTER         CLEAR     76  50  39 S15G23    29.77F
NACOGDOCHES    SUNNY     75  54  46 S21G26    29.74F
LUFKIN         SUNNY     75  54  47 S13G22    29.77F
$$

SUPPLEMENTAL OBSERVATIONS (CENTRAL)

CITY           SKY/WX    TMP DP  RH WIND       PRES   REMARKS
DENISON DAM      N/A     70  39  32 SW17        N/A
CADDO GRASSLND   N/A     73  48  40 S13G25      N/A
PAT MAYSE LAKE   N/A     70  43  37 SE17        N/A
CEDAR HILL       N/A     75  48  38 S10G22      N/A
ATHENS           N/A     77  52  41 S16G28      N/A
LAKE LIMESTONE   N/A     77  54  44 S22G31      N/A
MCGREGOR         N/A     77  57  50 S20G26      N/A
TEMPLE           N/A     77  54  44 S28G33      N/A
$$

SUPPLEMENTAL OBSERVATIONS (WEST)

CITY           SKY/WX    TMP DP  RH WIND       PRES   REMARKS
MILLERS CREEK    N/A     73  36  25 W23G30      N/A
POSSUM KINGDOM   N/A     81  37  21 W10         N/A
LBJ GRASSLAND    N/A     79  37  22 S9          N/A
GRANBURY         N/A     84  43  23 S15G23      N/A
COMANCHE         N/A     84  39  20 SW20G28     N/A
HAMBY            N/A     77  36  22 W18         N/A
IVIE RESERVOIR   N/A     88  32  13 SW24        N/A
COLORADO BEND    N/A     81  46  30 S12         N/A
$$

SUPPLEMENTAL OBSERVATIONS (EAST)

CITY           SKY/WX    TMP DP  RH WIND       PRES   REMARKS
CLARKSVILLE      N/A     73  48  40 S14         N/A
TEXARKANA        N/A     72  46  40 S7G17       N/A
LINDEN           N/A     73  48  40 S8G20       N/A
CADDO LAKE       N/A     77  46  33 S6G15       N/A
GILMER           N/A     75  50  41 S15G25      N/A
HENDERSON        N/A     75  52  43 S15G25      N/A
LUFKIN           N/A     77  52  41 MISG        N/A
N SABINE NF      N/A     75  52  43 MISG        N/A
S SABINE NF      N/A     75  48  38 SE7         N/A
$$

SUPPLEMENTAL OBSERVATIONS ARE A COLLECTION OF AUTOMATED INSTRUMENTS
THAT ARE MAINTAINED BY A VARIETY OF FEDERAL AND STATE AGENCIES.
CERTAIN ELEMENTS...SUCH AS HUMIDITY VALUES AND SUSTAINED WIND
SPEEDS...MAY BE APPROXIMATED.





USA.gov is the U.S. government's official web portal to all federal, state and local government web resources and services.